Regional Weather Roundup
Issued by NWS

Home | Current Version | Previous Version | Graphics & Text | Print | Product List | Glossary On
Versions: 1 2 3 4 5 6 7 8 9 10 11 12 13 14 15 16 17 18 19 20 21 22 23 24 25 26 27 28 29 30 31 32 33 34 35 36 37 38 39 40 41 42 43 44 45 46 47 48 49 50
000
ASUS43 KMPX 312001
RWRMN
WEATHER ROUNDUP FOR MINNESOTA
NATIONAL WEATHER SERVICE TWIN CITIES/CHANHASSEN MN
300 PM CDT THU JUL 31 2014


NOTE: "FAIR" INDICATES FEW OR NO CLOUDS BELOW 12,000 FEET WITH NO
SIGNIFICANT WEATHER AND/OR OBSTRUCTIONS TO VISIBILITY. N/A MEANS
CURRENT SKY AND/OR WEATHER CONDITIONS ARE NOT AVAILABLE.

MNZ060>063-068>070-312100-
   Twin Cities Metro

CITY           SKY/WX    TMP DP  RH WIND       PRES   REMARKS
BLAINE         MOSUNNY   82  55  39 W9        30.01F
$$
MNZ001>005-007-008-013>017-022>024-027-028-312100-
   Northwest Minnesota

CITY           SKY/WX    TMP DP  RH WIND       PRES   REMARKS
THIEF RVR FALL SUNNY     79  57  47 W9        30.02S
CROOKSTON      SUNNY     79  61  53 NW7       30.02S
FOSSTON        MOSUNNY   79  61  53 N6        30.03S
DETROIT LAKES  MOSUNNY   79  59  50 NW9       30.05S
MOORHEAD       SUNNY     81  61  50 N8        30.03S
$$
MNZ006-009>011-018-025>026-312100-
   North Central Minnesota

CITY           SKY/WX    TMP DP  RH WIND       PRES   REMARKS
LONGVILLE      SUNNY     79  63  57 NW6       30.01S
GRAND RAPIDS   MOSUNNY   77  57  50 W9        30.00S
COOK           SUNNY     75  54  46 W9        29.99S
$$
MNZ012-019>021-037-312100-
   Northeast Minnesota

CITY           SKY/WX    TMP DP  RH WIND       PRES   REMARKS
GRAND MARAIS     N/A     56  49  77 W8        29.93S
$$
MNZ029>031-032-039>041-046>048-054>057-064-312100-
   West Central Minnesota

CITY           SKY/WX    TMP DP  RH WIND       PRES   REMARKS
WHEATON        SUNNY     77  57  50 W5        30.06S
GLENWOOD       SUNNY     81  52  36 NW5       30.06S
APPLETON       SUNNY     82  52  34 W3        30.04S
$$
MNZ033>034-036-042>043-049>051-058-059-312100-
   Central Minnesota

CITY           SKY/WX    TMP DP  RH WIND       PRES   REMARKS
LONG PRAIRIE   PTSUNNY   77  55  47 NW7       30.04F
LITTLE FALLS   MOSUNNY   79  52  38 NW3       30.03S
BUFFALO        SUNNY     80  52  37 SW6       30.04S
MAPLE LAKE     SUNNY     81  55  41 NW6       30.04S
$$
MNZ037-044-045-052-053-312100-
   East Central Minnesota

CITY           SKY/WX    TMP DP  RH WIND       PRES   REMARKS
CAMBRIDGE      MOSUNNY   82  61  47 W9        29.99S
RUSH CITY      SUNNY     81  60  49 NW7       30.00F
MOOSE LAKE     MOSUNNY   79  59  50 N5        29.97S
HINCKLEY       FAIR      79  63  57 W8        29.99S
CLOQUET        MOSUNNY   79  54  41 W9G16     29.98S
$$
MNZ071>073-080-081-089-090-097-098-312100-
   Southwest Minnesota

CITY           SKY/WX    TMP DP  RH WIND       PRES   REMARKS
MARSHALL       SUNNY     81  50  34 E3        30.05S
WORTHINGTON    MOSUNNY   79  55  44 W5        30.09S
$$
MNZ065>067-074>077-082>085-091>093-312100-
   South Central Minnesota

CITY           SKY/WX    TMP DP  RH WIND       PRES   REMARKS
MANKATO        MOSUNNY   79  54  41 W6G16     30.05S
ST JAMES       SUNNY     82  46  28 W5        30.06F
FAIRMONT       MOSUNNY   81  52  36 W6        30.06F
OWATONNA       MOSUNNY   81  52  36 W6        30.05S
WASECA         MOSUNNY   77  52  41 CALM      30.07F
$$
MNZ078>079-086>088-094>096-312100-
   Southeast Minnesota

CITY           SKY/WX    TMP DP  RH WIND       PRES   REMARKS
RED WING       MOSUNNY   84  52  32 W9        30.00F
WINONA         MOSUNNY   81  54  39 NW8       30.02F
AUSTIN         MOSUNNY   79  52  38 W7        30.06S
$$
ABBREVIATIONS USED IN REMARKS
   TC - TEMPERATURES IN CELSIUS
  WCI - WIND CHILL INDEX
   HX - HEAT INDEX
  VSB - VISIBILITY
$$


USA.gov is the U.S. government's official web portal to all federal, state and local government web resources and services.